EFPOEFTU

Guest
Details From EFPO - Pori
To EFTU - Turku
Flight Number -
Tags Generated
Created
Modified
Stats Distance 59 nm / 108 km
Max Altitude 0 ft / 0 m
Waypoints 2
Social Downloads 2
Likes 0
Share VATSIM

Download

Looking for another format? Having issues loading an existing format? Contact us
Advertisement - Login to hide

Notes

Generated

Route

EFPO EFTU

ID Type Via Altitude (ft/m) Position (lat/lon) Dist (leg/tot) Name
O EFPO APT - 0 / 0 61.46398 / 21.79848 - / 0 nm Pori
O EFTU APT - 0 / 0 60.51311 / 22.24015 58 / 58 nm

Altitude Profile

Advertisement - Login to hide

EFPO

Details ICAO EFPO (POR)
Name Pori
Region Finland
Timezone Europe/Helsinki (UTC+3.0)
Stats Elevation 44 ft / 13 m (AMSL)
Location 61.461200° 21.799300°
Runways 2
Magnetic Variation 8.275° E

METAR

EFPO 261320Z AUTO 17004KT 9999 -RA FEW008/// BKN010/// OVC049/// 10/08 Q0992

Decode

TAF

Not found

Departure Runways

ID Width Length Bearing (true/mag) Surface Threshold Overrun Markings Lighting
12 197 ft / 60 m 7,722 ft / 2,354 m 125.74° / 117.47° ASPHALT 312 ft / 95 m 0 ft / 0 m PREC-APP EDGE THRESHOLD MALS
17 98 ft / 30 m 2,630 ft / 802 m 173.91° / 165.64° ASPHALT 0 ft / 0 m 817 ft / 249 m VISUAL
30 197 ft / 60 m 7,722 ft / 2,354 m 305.77° / 297.50° ASPHALT 1,132 ft / 345 m 0 ft / 0 m PREC-APP EDGE THRESHOLD ALSF-I
35 98 ft / 30 m 2,630 ft / 802 m 353.91° / 345.64° ASPHALT 0 ft / 0 m 558 ft / 170 m VISUAL

EFTU

Details ICAO EFTU (TKU)
Name Turku
Region Finland
Timezone Europe/Helsinki (UTC+3.0)
Stats Elevation 161 ft / 49 m (AMSL)
Location 60.514100° 22.262800°
Runways 1
Magnetic Variation 8.207° E

METAR

EFTU 261320Z AUTO 20009KT 150V230 7000 -RA BKN007 OVC013 09/08 Q0993

Decode

TAF

TAF EFTU 261137Z 2612/2712 21010KT 9999 -RA SCT006 TEMPO 2612/2621 5000 SHRA BKN006 SCT025CB BECMG 2622/2624 BKN007 TEMPO 2700/2705 4000 -DZ BKN004 BECMG 2705/2707 BKN013 BECMG 2707/2709 FEW013 BKN030

Decode

Destination Runways

ID Width Length Bearing (true/mag) Surface Threshold Overrun Markings Lighting
08 197 ft / 60 m 8,210 ft / 2,502 m 84.82° / 76.62° ASPHALT 0 ft / 0 m 167 ft / 51 m PREC-APP EDGE THRESHOLD MALS
26 197 ft / 60 m 8,210 ft / 2,502 m 264.86° / 256.66° ASPHALT 0 ft / 0 m 49 ft / 15 m PREC-APP EDGE THRESHOLD CALVERT

Approach Navaids

Runway Type Ident Frequency Range Bearing (true/mag) Slope Elevation
26 GS TU 109.50 MHz 10 nm / 19 km 265.68° / 257.48 ° 3.00° 161 ft / 49 m (AMSL)
26 DME TU 109.50 MHz 18 nm / 33 km - - 200 ft / 61 m (AMSL)
26 LOC-ILS TU 109.50 MHz 18 nm / 33 km 264.82° / 256.61 ° - 161 ft / 49 m (AMSL)

Popular Alternatives